Regional Weather Roundup
Issued by NWS Glasgow, MT

Home | Current Version | Previous Version | Text Only | Print | Product List | Glossary On
Versions: 1 2 3 4 5 6 7 8 9 10 11 12 13 14 15 16 17 18 19 20 21 22 23 24 25 26 27 28 29 30 31 32 33 34 35 36 37 38 39 40 41 42 43 44 45 46 47 48 49 50
000
ASUS45 KGGW 100815
RWRGGW
HOURLY REGIONAL WEATHER ROUNDUP FOR NORTHEAST MONTANA
NATIONAL WEATHER SERVICE GLASGOW MONTANA
100 AM MST WED FEB 10 2016

NOTE: "FAIR" INDICATES FEW OR NO CLOUDS BELOW 12,000 FEET WITH NO
SIGNIFICANT WEATHER AND/OR OBSTRUCTIONS TO VISISBILITY.

NORTHEAST MONTANA


CITY           SKY/WX    TMP DP  RH WIND       PRES   REMARKS
GLASGOW        CLEAR     35  28  75 W7        29.87F
PLENTYWOOD       N/A     29  25  85 E3          N/A
WOLF POINT     CLEAR     29  27  92 CALM      29.88F
JORDAN           N/A     38  30  73 W13       29.90F
WINNETT          N/A     35  25  66 CALM        N/A
SIDNEY         CLOUDY    25  19  80 S6        29.88F
GLENDIVE       CLEAR     32  28  86 S6        29.91F
MALTA            N/A     33  29  85 SW8         N/A
SCOBEY           N/A     31  22  69 CALM      29.83F

FORT PECK REPORTS


CITY           SKY/WX    TMP DP  RH WIND       PRES   REMARKS
FORT PECK        N/A     35  30  82 SW7         N/A
THE PINES        N/A     39  28  64 SW6         N/A

SOUTHEAST MONTANA


CITY           SKY/WX    TMP DP  RH WIND       PRES   REMARKS
BILLINGS       CLOUDY    44  22  41 SW26      30.03F
MILES CITY     CLOUDY    31  24  75 SW10      29.93F
BAKER          CLEAR     31  24  75 W6        29.91F
LIVINGSTON     CLOUDY    48  21  34 SW38G54   30.14F

CENTRAL MONTANA


CITY           SKY/WX    TMP DP  RH WIND       PRES   REMARKS
HAVRE          CLOUDY    37  25  61 W10       29.96F
LEWISTOWN      CLOUDY    45  19  35 SW10      30.04F
GREAT FALLS    CLOUDY    44  24  45 SW20      30.06S
CUT BANK       PTCLDY    50  27  40 W29G37    29.98F
HELENA         CLOUDY    31  26  82 CALM      30.20S
BUTTE          CLOUDY    13  10  88 CALM      30.26F
BOZEMAN        CLOUDY    17  13  84 CALM      30.23F

WESTERN MONTANA


CITY           SKY/WX    TMP DP  RH WIND       PRES   REMARKS
MISSOULA       CLEAR     27  24  89 CALM      30.28F
KALISPELL      NOT AVBL

NORTH DAKOTA


CITY           SKY/WX    TMP DP  RH WIND       PRES   REMARKS
WILLISTON      PTCLDY    27  23  85 S3        29.86F
DICKINSON      PTCLDY    31  25  78 W10       29.85F
MINOT          LGT SNOW  19  12  74 SE12      29.92F
BISMARCK       CLOUDY    28  21  75 E9        29.96F

SOUTHERN SASKATCHEWAN


CITY           SKY/WX    TMP DP  RH WIND       PRES   REMARKS
REGINA         MOCLDY    25  23  93 SE10      29.81
ESTEVAN        MOCLDY    19  16  86 SE10G18   29.85F
SWIFT CURRENT  CLEAR     37  30  75 W12       29.86R




USA.gov is the U.S. government's official web portal to all federal, state and local government web resources and services.